Showing default

IRIDE-MS2-HEO-12, 68984

Orbit data source: Space-Track

IRIDE-MS2-HEO-12, 68984 is an Italian payload satellite in SSO that was launched on Sun, 03 May 2026 UTC via an FALCON 9 launch vehicle from the Air Force Western Test Range (AFWTR). Payload-class satellites include a variety of spacecraft equipped with specific instruments for various scientific and technological missions. These include communications satellites like Starlink; space stations such as the ISS; scientific satellites like the Hubble; Earth observation satellites from companies like Planet Labs, Umbra, and HawkEye 360; GPS; miniature CubeSats for education and research; and military/defense satellites.

Loading next visibility...
Identifier
68984, 2026-100E
Orbit
SSO
Country
Flag of ITIT
Related business
Manufacturer
ArgoTec
Mission
Operational spacecraft
Bus & Motor
HAWK, Unknown motor
Mass
65 kg wet, 65 kg dry
Launch date (UTC)
2026-05-03 (2 months ago)
Launch vehicle
FALCON 9
Launch site
Air Force Western Test Range (AFWTR)
Object type
Payload
Rocket body
Debris
Shape & HBR
Unknown shape, 14.5 m
Radar Cross Section
Medium (>0.1 m² and <1 m²)

Expand to show TLE details & history
Last TLE update: 14 hours ago

TLE from 14 hours ago
0 IRIDE-MS2-HEO-12
1 68984U 26100E   26175.20483421  .00001308  00000-0  13721-3 0  9998
2 68984  97.7336  72.4726 0005465 119.6454 240.5309 14.91185759  7741
Epoch: 2026-06-24T04:54Z
TLE epoch observation values (Epoch: 2026-06-24T04:54:57.675Z)
Latitude
-0.00008°
Longitude
86.3669°
Altitude
599.155 km
Speed
7.559 km/s
True Right ascension
04h 49m 53s
True Declination
0° 00' 00"
Sunlit
Object was in daylight at epoch
Visualization orbit readout
Latitude
Unknown
Longitude
Unknown
Altitude
Unknown
Speed
Unknown
Apparent Right ascension
Unknown
Apparent Declination
Unknown
Sunlit
N/A
Visualization observer readout
Local Sidereal Time
06:05:44
Azimuth
Unknown
Elevation
Unknown
Doppler factor
Unknown
Orbital elements
Apogee altitude
595.064 km
Perigee altitude
587.447 km
Semi-major axis
6,969.393 km
Eccentricity
0.00055
Inclination
97.7336°
RAAN
72.4726°
Arg. of periapsis
119.6454°
True anomaly
240.4764°
Mean anomaly
240.5309°
Eccentric anomaly
240.50365°
Mean motion
3.73036 °/min
Orbital period
96.51 mins
BSTAR
0.00013721
Loading maneuver chart data...
Computing Atmospheric mass density...
Loading historical data...
Loading historical data...
Loading historical data...
Loading historical data...
Loading historical data...
Loading historical data...
Loading historical data...

Documentation

Showing up to 5 results
|